Time,TemperatureF,DewpointF,PressureIn,WindDirection,WindDirectionDegrees,WindSpeedMPH,WindSpeedGustMPH,Humidity,HourlyPrecipIn,Conditions,Clouds,dailyrainin,SolarRadiationWatts/m^2,SoftwareType,DateUTC
2013-09-04 00:02:00,85.6,7.0,-100.00,South,171,0.0,-999.0,5,-99.99,,,-99.99,0.0,meteohub,2013-09-04 04:02:00,
2013-09-04 00:07:00,85.6,7.0,-100.00,South,171,0.0,-999.0,5,-99.99,,,-99.99,0.0,meteohub,2013-09-04 04:07:00,
2013-09-04 00:12:00,85.6,7.0,-100.00,South,171,0.0,-999.0,5,-99.99,,,-99.99,0.0,meteohub,2013-09-04 04:12:00,
2013-09-04 00:17:00,85.6,7.0,-100.00,South,171,0.0,-999.0,5,-99.99,,,-99.99,0.0,meteohub,2013-09-04 04:17:00,
2013-09-04 00:22:00,85.6,7.0,-100.00,South,169,0.0,-999.0,5,-99.99,,,0.00,0.0,meteohub,2013-09-04 04:22:00,
2013-09-04 00:27:00,85.5,6.8,-100.00,South,169,0.0,-999.0,5,-99.99,,,-99.99,0.0,meteohub,2013-09-04 04:27:00,
2013-09-04 00:32:00,85.3,6.8,-100.00,South,169,0.0,-999.0,5,-99.99,,,-99.99,0.0,meteohub,2013-09-04 04:32:00,
2013-09-04 00:37:00,85.5,6.8,-100.00,South,180,0.0,-999.0,5,-99.99,,,-99.99,0.0,meteohub,2013-09-04 04:37:00,
2013-09-04 00:42:00,85.5,6.8,-100.00,South,180,0.0,-999.0,5,-99.99,,,-99.99,0.0,meteohub,2013-09-04 04:42:00,
2013-09-04 00:47:00,85.5,6.8,-100.00,South,179,0.0,-999.0,5,-99.99,,,-99.99,0.0,meteohub,2013-09-04 04:47:00,
2013-09-04 00:52:00,85.3,6.8,-100.00,South,184,4.0,-999.0,5,-99.99,,,-99.99,0.0,meteohub,2013-09-04 04:52:00,
2013-09-04 00:57:00,85.3,6.8,-100.00,South,185,0.0,-999.0,5,-99.99,,,0.00,0.0,meteohub,2013-09-04 04:57:00,
2013-09-04 01:02:00,84.9,6.4,-100.00,South,186,0.0,-999.0,5,-99.99,,,-99.99,0.0,meteohub,2013-09-04 05:02:00,
2013-09-04 01:07:00,85.3,6.8,-100.00,South,185,0.0,-999.0,5,-99.99,,,0.00,0.0,meteohub,2013-09-04 05:07:00,
2013-09-04 01:12:00,84.9,6.4,-100.00,South,186,1.0,-999.0,5,-99.99,,,-99.99,0.0,meteohub,2013-09-04 05:12:00,
2013-09-04 01:17:00,84.9,6.4,-100.00,South,186,0.0,-999.0,5,-99.99,,,-99.99,0.0,meteohub,2013-09-04 05:17:00,
2013-09-04 01:22:00,84.7,10.4,-100.00,South,186,0.0,-999.0,6,-99.99,,,-99.99,0.0,meteohub,2013-09-04 05:22:00,
2013-09-04 01:27:00,84.7,10.4,-100.00,South,186,0.0,-999.0,6,-99.99,,,-99.99,0.0,meteohub,2013-09-04 05:27:00,
2013-09-04 01:32:00,84.9,10.6,-100.00,South,186,0.0,-999.0,6,-99.99,,,-99.99,0.0,meteohub,2013-09-04 05:32:00,
2013-09-04 01:37:00,84.7,10.4,-100.00,South,186,0.0,-999.0,6,-99.99,,,-99.99,0.0,meteohub,2013-09-04 05:37:00,
2013-09-04 01:42:00,84.6,10.2,-100.00,South,186,0.0,-999.0,6,-99.99,,,-99.99,0.0,meteohub,2013-09-04 05:42:00,
2013-09-04 01:47:00,84.6,10.2,-100.00,South,186,0.0,-999.0,6,-99.99,,,-99.99,0.0,meteohub,2013-09-04 05:47:00,
2013-09-04 01:52:00,84.6,10.2,-100.00,South,186,0.0,-999.0,6,-99.99,,,-99.99,0.0,meteohub,2013-09-04 05:52:00,
2013-09-04 01:57:00,84.6,10.2,-100.00,South,186,2.0,-999.0,6,-99.99,,,-99.99,0.0,meteohub,2013-09-04 05:57:00,
2013-09-04 02:02:00,84.7,10.4,-100.00,South,187,0.0,-999.0,6,-99.99,,,-99.99,0.0,meteohub,2013-09-04 06:02:00,
2013-09-04 02:07:00,84.9,10.6,-100.00,South,182,0.0,-999.0,6,-99.99,,,-99.99,0.0,meteohub,2013-09-04 06:07:00,
2013-09-04 02:12:00,84.7,10.4,-100.00,South,182,0.0,-999.0,6,-99.99,,,-99.99,0.0,meteohub,2013-09-04 06:12:00,
2013-09-04 02:17:00,84.6,10.2,-100.00,South,182,0.0,-999.0,6,-99.99,,,0.00,0.0,meteohub,2013-09-04 06:17:00,
2013-09-04 02:22:00,84.6,10.2,-100.00,South,182,0.0,-999.0,6,-99.99,,,-99.99,0.0,meteohub,2013-09-04 06:22:00,
2013-09-04 02:27:00,84.4,10.0,-100.00,South,182,0.0,-999.0,6,-99.99,,,-99.99,0.0,meteohub,2013-09-04 06:27:00,
2013-09-04 02:32:00,84.2,10.0,-100.00,South,182,0.0,-999.0,6,-99.99,,,-99.99,0.0,meteohub,2013-09-04 06:32:00,
2013-09-04 02:37:00,84.0,9.9,-100.00,South,182,0.0,-999.0,6,-99.99,,,-99.99,0.0,meteohub,2013-09-04 06:37:00,
2013-09-04 02:42:00,84.0,9.9,-100.00,South,182,0.0,-999.0,6,-99.99,,,-99.99,0.0,meteohub,2013-09-04 06:42:00,
2013-09-04 02:47:00,84.0,9.9,-100.00,South,182,0.0,-999.0,6,-99.99,,,-99.99,0.0,meteohub,2013-09-04 06:47:00,
2013-09-04 02:52:00,83.8,9.7,-100.00,South,182,0.0,-999.0,6,-99.99,,,-99.99,0.0,meteohub,2013-09-04 06:52:00,
2013-09-04 02:57:00,83.8,9.7,-100.00,South,182,0.0,-999.0,6,-99.99,,,-99.99,0.0,meteohub,2013-09-04 06:57:00,
2013-09-04 03:02:00,83.8,9.7,-100.00,South,182,0.0,-999.0,6,-99.99,,,-99.99,0.0,meteohub,2013-09-04 07:02:00,
2013-09-04 03:07:00,83.8,9.7,-100.00,South,182,0.0,-999.0,6,-99.99,,,-99.99,0.0,meteohub,2013-09-04 07:07:00,
2013-09-04 03:12:00,83.8,9.7,-100.00,South,182,0.0,-999.0,6,-99.99,,,-99.99,0.0,meteohub,2013-09-04 07:12:00,
2013-09-04 03:17:00,83.7,9.7,-100.00,South,182,0.0,-999.0,6,-99.99,,,-99.99,0.0,meteohub,2013-09-04 07:17:00,
2013-09-04 03:22:00,83.7,9.7,-100.00,South,182,0.0,-999.0,6,-99.99,,,-99.99,0.0,meteohub,2013-09-04 07:22:00,
2013-09-04 03:27:00,83.7,9.7,-100.00,South,182,0.0,-999.0,6,-99.99,,,-99.99,0.0,meteohub,2013-09-04 07:27:00,
2013-09-04 03:32:00,83.5,9.5,-100.00,South,182,0.0,-999.0,6,-99.99,,,-99.99,0.0,meteohub,2013-09-04 07:32:00,
2013-09-04 03:37:00,83.5,9.5,-100.00,South,182,0.0,-999.0,6,-99.99,,,-99.99,0.0,meteohub,2013-09-04 07:37:00,
2013-09-04 03:42:00,83.5,9.5,-100.00,South,182,0.0,-999.0,6,-99.99,,,-99.99,0.0,meteohub,2013-09-04 07:42:00,
2013-09-04 03:47:00,83.5,9.5,-100.00,South,182,0.0,-999.0,6,-99.99,,,-99.99,0.0,meteohub,2013-09-04 07:47:00,
2013-09-04 03:52:00,83.7,9.7,-100.00,South,182,0.0,-999.0,6,-99.99,,,-99.99,0.0,meteohub,2013-09-04 07:52:00,
2013-09-04 03:57:00,83.7,9.7,-100.00,South,182,0.0,-999.0,6,-99.99,,,-99.99,0.0,meteohub,2013-09-04 07:57:00,
2013-09-04 04:02:00,83.7,9.7,-100.00,South,182,0.0,-999.0,6,-99.99,,,0.00,0.0,meteohub,2013-09-04 08:02:00,
2013-09-04 04:07:00,83.8,9.7,-100.00,South,182,0.0,-999.0,6,-99.99,,,-99.99,0.0,meteohub,2013-09-04 08:07:00,
2013-09-04 04:12:00,83.8,9.7,-100.00,South,182,0.0,-999.0,6,-99.99,,,-99.99,0.0,meteohub,2013-09-04 08:12:00,
2013-09-04 04:17:00,83.8,9.7,-100.00,South,182,0.0,-999.0,6,-99.99,,,-99.99,0.0,meteohub,2013-09-04 08:17:00,
2013-09-04 04:22:00,83.8,9.7,-100.00,South,182,0.0,-999.0,6,-99.99,,,-99.99,0.0,meteohub,2013-09-04 08:22:00,
2013-09-04 04:27:00,83.8,9.7,-100.00,South,182,0.0,-999.0,6,-99.99,,,-99.99,0.0,meteohub,2013-09-04 08:27:00,
2013-09-04 04:32:00,83.8,13.3,-100.00,South,182,0.0,-999.0,7,-99.99,,,-99.99,0.0,meteohub,2013-09-04 08:32:00,
2013-09-04 04:37:00,83.8,13.3,-100.00,South,182,0.0,-999.0,7,-99.99,,,-99.99,0.0,meteohub,2013-09-04 08:37:00,
2013-09-04 04:42:00,83.8,13.3,-100.00,South,182,0.0,-999.0,7,-99.99,,,-99.99,0.0,meteohub,2013-09-04 08:42:00,
2013-09-04 04:47:00,83.8,13.3,-100.00,South,182,0.0,-999.0,7,-99.99,,,-99.99,0.0,meteohub,2013-09-04 08:47:00,
2013-09-04 04:52:00,83.8,13.3,-100.00,South,182,0.0,-999.0,7,-99.99,,,-99.99,0.0,meteohub,2013-09-04 08:52:00,
2013-09-04 04:57:00,84.0,13.3,-100.00,South,182,0.0,-999.0,7,-99.99,,,-99.99,0.0,meteohub,2013-09-04 08:57:00,
2013-09-04 05:02:00,84.0,13.3,-100.00,South,178,0.0,-999.0,7,-99.99,,,-99.99,0.0,meteohub,2013-09-04 09:02:00,
2013-09-04 05:07:00,84.0,13.3,-100.00,South,179,0.0,-999.0,7,-99.99,,,-99.99,0.0,meteohub,2013-09-04 09:07:00,
2013-09-04 05:12:00,84.2,13.5,-100.00,South,178,0.0,-999.0,7,-99.99,,,-99.99,0.0,meteohub,2013-09-04 09:12:00,
2013-09-04 05:17:00,84.2,13.5,-100.00,South,178,0.0,-999.0,7,-99.99,,,0.00,0.0,meteohub,2013-09-04 09:17:00,
2013-09-04 05:22:00,84.4,13.6,-100.00,South,178,0.0,-999.0,7,-99.99,,,-99.99,0.0,meteohub,2013-09-04 09:22:00,
2013-09-04 05:27:00,84.4,13.6,-100.00,South,178,0.0,-999.0,7,-99.99,,,-99.99,0.0,meteohub,2013-09-04 09:27:00,
2013-09-04 05:32:00,84.4,13.6,-100.00,South,178,0.0,-999.0,7,-99.99,,,-99.99,0.0,meteohub,2013-09-04 09:32:00,
2013-09-04 05:37:00,84.4,10.0,-100.00,South,178,0.0,-999.0,6,-99.99,,,-99.99,0.0,meteohub,2013-09-04 09:37:00,
2013-09-04 05:42:00,84.4,10.0,-100.00,South,178,0.0,-999.0,6,-99.99,,,-99.99,0.0,meteohub,2013-09-04 09:42:00,
2013-09-04 05:47:00,84.6,10.2,-100.00,South,178,0.0,-999.0,6,-99.99,,,0.00,0.0,meteohub,2013-09-04 09:47:00,
2013-09-04 05:52:00,84.6,10.2,-100.00,South,178,0.0,-999.0,6,-99.99,,,-99.99,0.0,meteohub,2013-09-04 09:52:00,
2013-09-04 05:57:00,84.6,10.2,-100.00,South,178,0.0,-999.0,6,-99.99,,,-99.99,0.0,meteohub,2013-09-04 09:57:00,
2013-09-04 06:02:00,84.6,10.2,-100.00,South,178,0.0,-999.0,6,-99.99,,,-99.99,0.0,meteohub,2013-09-04 10:02:00,
2013-09-04 06:07:00,84.6,10.2,-100.00,South,178,0.0,-999.0,6,-99.99,,,-99.99,0.0,meteohub,2013-09-04 10:07:00,
2013-09-04 06:12:00,84.6,10.2,-100.00,South,178,0.0,-999.0,6,-99.99,,,-99.99,0.0,meteohub,2013-09-04 10:12:00,
2013-09-04 06:17:00,84.6,10.2,-100.00,South,178,0.0,-999.0,6,-99.99,,,-99.99,0.0,meteohub,2013-09-04 10:17:00,
2013-09-04 06:22:00,84.6,10.2,-100.00,South,178,0.0,-999.0,6,-99.99,,,-99.99,0.0,meteohub,2013-09-04 10:22:00,
2013-09-04 06:27:00,84.6,10.2,-100.00,South,178,0.0,-999.0,6,-99.99,,,-99.99,0.0,meteohub,2013-09-04 10:27:00,
2013-09-04 06:32:00,84.7,10.4,-100.00,South,177,0.0,-999.0,6,-99.99,,,-99.99,0.0,meteohub,2013-09-04 10:32:00,
2013-09-04 06:37:00,84.7,10.4,-100.00,South,177,0.0,-999.0,6,-99.99,,,0.00,0.0,meteohub,2013-09-04 10:37:00,
2013-09-04 06:42:00,84.6,10.2,-100.00,South,177,0.0,-999.0,6,-99.99,,,-99.99,0.0,meteohub,2013-09-04 10:42:00,
2013-09-04 06:47:00,84.6,10.2,-100.00,South,176,0.0,-999.0,6,-99.99,,,-99.99,0.0,meteohub,2013-09-04 10:47:00,
2013-09-04 06:52:00,84.6,10.2,-100.00,South,177,0.0,-999.0,6,-99.99,,,-99.99,0.0,meteohub,2013-09-04 10:52:00,
2013-09-04 06:57:00,84.7,13.8,-100.00,South,177,0.0,-999.0,7,-99.99,,,-99.99,0.0,meteohub,2013-09-04 10:57:00,
2013-09-04 07:02:00,84.7,13.8,-100.00,South,176,0.0,-999.0,7,-99.99,,,-99.99,0.0,meteohub,2013-09-04 11:02:00,
2013-09-04 07:07:00,84.7,13.8,-100.00,South,177,0.0,-999.0,7,-99.99,,,-99.99,12.0,meteohub,2013-09-04 11:07:00,
2013-09-04 07:12:00,84.7,13.8,-100.00,South,177,0.0,-999.0,7,-99.99,,,-99.99,25.0,meteohub,2013-09-04 11:12:00,
2013-09-04 07:17:00,84.7,13.8,-100.00,South,177,0.0,-999.0,7,-99.99,,,-99.99,39.0,meteohub,2013-09-04 11:17:00,
2013-09-04 07:22:00,84.7,10.4,-100.00,South,177,1.0,-999.0,6,-99.99,,,-99.99,47.0,meteohub,2013-09-04 11:22:00,
2013-09-04 07:27:00,85.1,10.6,-100.00,South,174,0.0,-999.0,6,-99.99,,,-99.99,56.0,meteohub,2013-09-04 11:27:00,
2013-09-04 07:32:00,85.3,10.8,-100.00,South,175,0.0,-999.0,6,-99.99,,,-99.99,63.0,meteohub,2013-09-04 11:32:00,
2013-09-04 07:37:00,85.5,10.9,-100.00,South,175,0.0,-999.0,6,-99.99,,,-99.99,79.0,meteohub,2013-09-04 11:37:00,
2013-09-04 07:42:00,85.6,10.9,-100.00,South,175,0.0,-999.0,6,-99.99,,,-99.99,109.0,meteohub,2013-09-04 11:42:00,
2013-09-04 07:47:00,85.6,10.9,-100.00,South,178,0.0,-999.0,6,-99.99,,,-99.99,167.0,meteohub,2013-09-04 11:47:00,
2013-09-04 07:52:00,86.0,11.3,-100.00,SSE,167,0.0,-999.0,6,-99.99,,,-99.99,130.0,meteohub,2013-09-04 11:52:00,
2013-09-04 07:57:00,86.4,11.5,-100.00,South,169,0.0,-999.0,6,-99.99,,,-99.99,193.0,meteohub,2013-09-04 11:57:00,
2013-09-04 08:02:00,86.5,11.7,-100.00,South,182,0.0,-999.0,6,-99.99,,,-99.99,127.0,meteohub,2013-09-04 12:02:00,
2013-09-04 08:07:00,86.7,15.3,-100.00,SSE,153,0.0,-999.0,7,-99.99,,,-99.99,155.0,meteohub,2013-09-04 12:07:00,
2013-09-04 08:12:00,86.7,15.3,-100.00,SSE,152,0.0,-999.0,7,-99.99,,,-99.99,142.0,meteohub,2013-09-04 12:12:00,
2013-09-04 08:17:00,86.7,15.3,-100.00,SE,146,1.0,-999.0,7,-99.99,,,-99.99,160.0,meteohub,2013-09-04 12:17:00,
2013-09-04 08:22:00,86.9,11.8,-100.00,SE,144,2.0,-999.0,6,-99.99,,,-99.99,188.0,meteohub,2013-09-04 12:22:00,
2013-09-04 08:27:00,87.3,12.2,-100.00,South,187,0.0,-999.0,6,-99.99,,,-99.99,195.0,meteohub,2013-09-04 12:27:00,
2013-09-04 08:32:00,87.1,15.6,-100.00,SSE,158,0.0,-999.0,7,-99.99,,,-99.99,200.0,meteohub,2013-09-04 12:32:00,
2013-09-04 08:37:00,87.1,12.0,-100.00,SSW,210,3.0,-999.0,6,-99.99,,,-99.99,197.0,meteohub,2013-09-04 12:37:00,
2013-09-04 08:42:00,87.4,12.4,-100.00,SSE,161,0.0,-999.0,6,-99.99,,,-99.99,220.0,meteohub,2013-09-04 12:42:00,
2013-09-04 08:47:00,87.4,12.4,-100.00,SSE,161,4.0,-999.0,6,-99.99,,,-99.99,272.0,meteohub,2013-09-04 12:47:00,
2013-09-04 08:52:00,87.3,18.9,-100.00,South,187,6.0,-999.0,8,-99.99,,,-99.99,267.0,meteohub,2013-09-04 12:52:00,
2013-09-04 08:57:00,87.4,18.9,-100.00,SSW,195,2.0,-999.0,8,-99.99,,,0.00,318.0,meteohub,2013-09-04 12:57:00,
2013-09-04 09:02:00,88.0,16.2,-100.00,SE,146,3.0,-999.0,7,-99.99,,,-99.99,304.0,meteohub,2013-09-04 13:02:00,
2013-09-04 09:07:00,87.8,19.2,-100.00,SSE,161,0.0,-999.0,8,-99.99,,,0.00,290.0,meteohub,2013-09-04 13:07:00,
2013-09-04 09:12:00,87.8,21.9,-100.00,SSW,209,0.0,-999.0,9,-99.99,,,-99.99,272.0,meteohub,2013-09-04 13:12:00,
2013-09-04 09:17:00,88.0,27.0,-100.00,SE,144,2.0,-999.0,11,-99.99,,,-99.99,292.0,meteohub,2013-09-04 13:17:00,
2013-09-04 09:22:00,88.3,22.3,-100.00,SSE,150,2.0,-999.0,9,-99.99,,,-99.99,311.0,meteohub,2013-09-04 13:22:00,
2013-09-04 09:27:00,88.3,19.6,-100.00,SE,126,6.0,-999.0,8,-99.99,,,-99.99,327.0,meteohub,2013-09-04 13:27:00,
2013-09-04 09:32:00,88.3,22.3,-100.00,South,172,3.0,-999.0,9,-99.99,,,-99.99,411.0,meteohub,2013-09-04 13:32:00,
2013-09-04 09:37:00,88.5,22.5,-100.00,SE,146,0.0,-999.0,9,-99.99,,,-99.99,469.0,meteohub,2013-09-04 13:37:00,
2013-09-04 09:42:00,88.9,22.8,-100.00,SSE,157,3.0,-999.0,9,-99.99,,,0.00,506.0,meteohub,2013-09-04 13:42:00,
2013-09-04 09:47:00,89.1,22.8,-100.00,SSW,209,3.0,-999.0,9,-99.99,,,-99.99,499.0,meteohub,2013-09-04 13:47:00,
2013-09-04 09:52:00,89.2,25.5,-100.00,South,184,3.0,-999.0,10,-99.99,,,-99.99,128.0,meteohub,2013-09-04 13:52:00,
2013-09-04 09:57:00,88.9,22.8,-100.00,SE,134,0.0,-999.0,9,-99.99,,,-99.99,134.0,meteohub,2013-09-04 13:57:00,
2013-09-04 10:02:00,88.5,19.8,-100.00,South,185,1.0,-999.0,8,-99.99,,,-99.99,169.0,meteohub,2013-09-04 14:02:00,
2013-09-04 10:07:00,88.5,16.7,-100.00,South,179,0.0,-999.0,7,-99.99,,,-99.99,216.0,meteohub,2013-09-04 14:07:00,
2013-09-04 10:12:00,88.9,16.9,-100.00,SSW,199,5.0,-999.0,7,-99.99,,,-99.99,905.0,meteohub,2013-09-04 14:12:00,
2013-09-04 10:17:00,89.4,25.7,-100.00,South,180,5.0,-999.0,10,-99.99,,,-99.99,740.0,meteohub,2013-09-04 14:17:00,
2013-09-04 10:22:00,90.0,28.4,-100.00,SSE,165,0.0,-999.0,11,-99.99,,,-99.99,738.0,meteohub,2013-09-04 14:22:00,
2013-09-04 10:27:00,90.5,34.9,-100.00,SSE,153,3.0,-999.0,14,-99.99,,,-99.99,717.0,meteohub,2013-09-04 14:27:00,
2013-09-04 10:32:00,90.1,34.5,-100.00,SE,137,0.0,-999.0,14,-99.99,,,-99.99,343.0,meteohub,2013-09-04 14:32:00,
2013-09-04 10:37:00,89.8,28.2,-100.00,SE,146,1.0,-999.0,11,-99.99,,,-99.99,234.0,meteohub,2013-09-04 14:37:00,
2013-09-04 10:42:00,89.1,25.3,-100.00,ESE,115,6.0,-999.0,10,-99.99,,,0.00,575.0,meteohub,2013-09-04 14:42:00,
2013-09-04 10:47:00,89.4,20.3,-100.00,SSE,153,2.0,-999.0,8,-99.99,,,-99.99,789.0,meteohub,2013-09-04 14:47:00,
2013-09-04 10:52:00,90.0,26.1,-100.00,South,179,6.0,-999.0,10,-99.99,,,-99.99,290.0,meteohub,2013-09-04 14:52:00,
2013-09-04 10:57:00,89.8,30.4,-100.00,SE,138,6.0,-999.0,12,-99.99,,,-99.99,800.0,meteohub,2013-09-04 14:57:00,
2013-09-04 11:02:00,90.0,28.4,-100.00,SE,142,4.0,-999.0,11,-99.99,,,-99.99,682.0,meteohub,2013-09-04 15:02:00,
2013-09-04 11:07:00,90.1,28.6,-100.00,SE,146,4.0,-999.0,11,-99.99,,,-99.99,534.0,meteohub,2013-09-04 15:07:00,
2013-09-04 11:12:00,90.1,26.2,-100.00,SE,142,5.0,-999.0,10,-99.99,,,-99.99,396.0,meteohub,2013-09-04 15:12:00,
2013-09-04 11:22:00,89.8,20.7,-100.00,South,172,1.0,-999.0,8,-99.99,,,-99.99,636.0,meteohub,2013-09-04 15:22:00,
2013-09-04 11:27:00,89.8,28.2,-100.00,SSW,202,7.0,-999.0,11,-99.99,,,-99.99,617.0,meteohub,2013-09-04 15:27:00,
2013-09-04 11:32:00,89.6,30.2,-100.00,SSW,194,4.0,-999.0,12,-99.99,,,-99.99,633.0,meteohub,2013-09-04 15:32:00,
2013-09-04 11:37:00,89.6,35.8,-100.00,SW,223,5.0,-999.0,15,-99.99,,,-99.99,575.0,meteohub,2013-09-04 15:37:00,
2013-09-04 11:42:00,89.4,40.3,-100.00,South,188,6.0,-999.0,18,-99.99,,,0.00,654.0,meteohub,2013-09-04 15:42:00,
2013-09-04 11:47:00,88.9,43.9,-100.00,South,175,4.0,-999.0,21,-99.99,,,-99.99,566.0,meteohub,2013-09-04 15:47:00,
2013-09-04 11:52:00,89.1,40.1,-100.00,South,188,5.0,-999.0,18,-99.99,,,0.00,591.0,meteohub,2013-09-04 15:52:00,
2013-09-04 11:57:00,89.1,40.1,-100.00,SW,233,3.0,-999.0,18,-99.99,,,0.00,715.0,meteohub,2013-09-04 15:57:00,
2013-09-04 12:02:00,88.7,45.0,-100.00,SW,215,2.0,-999.0,22,-99.99,,,-99.99,904.0,meteohub,2013-09-04 16:02:00,
2013-09-04 12:07:00,89.4,43.0,-100.00,SSE,167,6.0,-999.0,20,-99.99,,,-99.99,823.0,meteohub,2013-09-04 16:07:00,
2013-09-04 12:12:00,89.8,45.9,-100.00,South,178,3.0,-999.0,22,-99.99,,,-99.99,735.0,meteohub,2013-09-04 16:12:00,
2013-09-04 12:17:00,89.8,44.6,-100.00,SSE,168,3.0,-999.0,21,-99.99,,,-99.99,696.0,meteohub,2013-09-04 16:17:00,
2013-09-04 12:22:00,90.1,39.4,-100.00,SE,142,6.0,-999.0,17,-99.99,,,-99.99,942.0,meteohub,2013-09-04 16:22:00,
2013-09-04 12:27:00,90.0,42.3,-100.00,South,169,4.0,-999.0,19,-99.99,,,-99.99,888.0,meteohub,2013-09-04 16:27:00,
2013-09-04 12:32:00,90.1,42.3,-100.00,ESE,109,6.0,-999.0,19,-99.99,,,0.00,710.0,meteohub,2013-09-04 16:32:00,
2013-09-04 12:37:00,90.0,42.3,-100.00,SSW,196,5.0,-999.0,19,-99.99,,,-99.99,1136.0,meteohub,2013-09-04 16:37:00,
2013-09-04 12:42:00,90.7,42.8,-100.00,SSW,194,6.0,-999.0,19,-99.99,,,-99.99,1204.0,meteohub,2013-09-04 16:42:00,
2013-09-04 12:47:00,90.3,51.8,-100.00,SSW,203,6.0,-999.0,27,-99.99,,,-99.99,1243.0,meteohub,2013-09-04 16:47:00,
2013-09-04 12:52:00,91.0,53.4,-100.00,South,180,2.0,-999.0,28,-99.99,,,-99.99,1297.0,meteohub,2013-09-04 16:52:00,
2013-09-04 12:57:00,91.0,57.0,-100.00,SW,217,5.0,-999.0,32,-99.99,,,-99.99,925.0,meteohub,2013-09-04 16:57:00,
2013-09-04 13:02:00,90.7,55.9,-100.00,SSW,207,6.0,-999.0,31,-99.99,,,-99.99,318.0,meteohub,2013-09-04 17:02:00,
2013-09-04 13:07:00,89.8,44.6,-100.00,South,173,3.0,-999.0,21,-99.99,,,-99.99,265.0,meteohub,2013-09-04 17:07:00,
2013-09-04 13:12:00,89.8,40.6,-100.00,South,180,8.0,-999.0,18,-99.99,,,-99.99,345.0,meteohub,2013-09-04 17:12:00,
2013-09-04 13:17:00,90.0,37.8,-100.00,SW,222,4.0,-999.0,16,-99.99,,,-99.99,802.0,meteohub,2013-09-04 17:17:00,
2013-09-04 13:22:00,90.3,42.4,-100.00,SSW,198,7.0,-999.0,19,-99.99,,,-99.99,1083.0,meteohub,2013-09-04 17:22:00,
2013-09-04 13:27:00,90.1,43.7,-100.00,South,173,1.0,-999.0,20,-99.99,,,-99.99,387.0,meteohub,2013-09-04 17:27:00,
2013-09-04 13:32:00,89.6,39.0,-100.00,SW,222,3.0,-999.0,17,-99.99,,,-99.99,308.0,meteohub,2013-09-04 17:32:00,
2013-09-04 13:37:00,88.9,42.6,-100.00,SSW,199,8.0,-999.0,20,-99.99,,,-99.99,371.0,meteohub,2013-09-04 17:37:00,
2013-09-04 13:42:00,88.3,46.9,-100.00,South,175,0.0,-999.0,24,-99.99,,,-99.99,1153.0,meteohub,2013-09-04 17:42:00,
2013-09-04 13:47:00,89.2,53.8,-100.00,North,355,6.0,-999.0,30,-99.99,,,-99.99,1095.0,meteohub,2013-09-04 17:47:00,
2013-09-04 13:52:00,90.1,59.5,-100.00,WNW,290,0.0,-999.0,36,-99.99,,,-99.99,1048.0,meteohub,2013-09-04 17:52:00,
2013-09-04 13:57:00,90.5,59.2,-100.00,SE,128,6.0,-999.0,35,-99.99,,,-99.99,1009.0,meteohub,2013-09-04 17:57:00,
2013-09-04 14:02:00,90.0,62.4,-100.00,South,179,4.0,-999.0,40,-99.99,,,-99.99,1023.0,meteohub,2013-09-04 18:02:00,
2013-09-04 14:07:00,89.8,55.0,-100.00,ESE,123,0.0,-999.0,31,-99.99,,,-99.99,605.0,meteohub,2013-09-04 18:07:00,
2013-09-04 14:12:00,89.4,52.0,-100.00,South,186,5.0,-999.0,28,-99.99,,,-99.99,573.0,meteohub,2013-09-04 18:12:00,
2013-09-04 14:17:00,89.1,53.6,-100.00,South,171,1.0,-999.0,30,-99.99,,,-99.99,663.0,meteohub,2013-09-04 18:17:00,
2013-09-04 14:22:00,89.6,53.1,-100.00,South,170,4.0,-999.0,29,-99.99,,,-99.99,673.0,meteohub,2013-09-04 18:22:00,
2013-09-04 14:27:00,89.1,51.8,-100.00,South,188,3.0,-999.0,28,-99.99,,,-99.99,596.0,meteohub,2013-09-04 18:27:00,
2013-09-04 14:32:00,88.7,45.0,-100.00,SSE,155,9.0,-999.0,22,-99.99,,,-99.99,624.0,meteohub,2013-09-04 18:32:00,
2013-09-04 14:37:00,88.9,45.1,-100.00,South,191,6.0,-999.0,22,-99.99,,,-99.99,606.0,meteohub,2013-09-04 18:37:00,
2013-09-04 14:42:00,88.5,44.8,-100.00,SW,216,2.0,-999.0,22,-99.99,,,-99.99,483.0,meteohub,2013-09-04 18:42:00,
2013-09-04 14:47:00,88.7,46.2,-100.00,SSW,198,0.0,-999.0,23,-99.99,,,-99.99,360.0,meteohub,2013-09-04 18:47:00,
2013-09-04 14:52:00,88.7,42.4,-100.00,SSE,168,3.0,-999.0,20,-99.99,,,-99.99,306.0,meteohub,2013-09-04 18:52:00,
2013-09-04 14:57:00,88.9,41.4,-100.00,South,183,5.0,-999.0,19,-99.99,,,-99.99,283.0,meteohub,2013-09-04 18:57:00,
2013-09-04 15:02:00,88.2,39.4,-100.00,South,186,4.0,-999.0,18,-99.99,,,-99.99,265.0,meteohub,2013-09-04 19:02:00,
2013-09-04 15:07:00,88.3,34.9,-100.00,SSW,192,7.0,-999.0,15,-99.99,,,-99.99,251.0,meteohub,2013-09-04 19:07:00,
2013-09-04 15:17:00,88.3,34.9,-100.00,South,172,4.0,-999.0,15,-99.99,,,-99.99,230.0,meteohub,2013-09-04 19:17:00,
2013-09-04 15:22:00,88.5,33.3,-100.00,SSE,163,3.0,-999.0,14,-99.99,,,-99.99,214.0,meteohub,2013-09-04 19:22:00,
2013-09-04 15:27:00,88.3,34.9,-100.00,SSW,207,3.0,-999.0,15,-99.99,,,-99.99,214.0,meteohub,2013-09-04 19:27:00,
2013-09-04 15:32:00,88.3,33.1,-100.00,SSE,165,0.0,-999.0,14,-99.99,,,-99.99,207.0,meteohub,2013-09-04 19:32:00,
2013-09-04 15:37:00,88.2,36.3,-100.00,SE,140,5.0,-999.0,16,-99.99,,,-99.99,218.0,meteohub,2013-09-04 19:37:00,
2013-09-04 15:47:00,88.2,34.7,-100.00,South,175,1.0,-999.0,15,-99.99,,,-99.99,204.0,meteohub,2013-09-04 19:47:00,
2013-09-04 15:52:00,88.3,33.1,-100.00,SSE,167,2.0,-999.0,14,-99.99,,,-99.99,202.0,meteohub,2013-09-04 19:52:00,
2013-09-04 15:57:00,88.3,33.1,-100.00,SSE,160,0.0,-999.0,14,-99.99,,,-99.99,190.0,meteohub,2013-09-04 19:57:00,
2013-09-04 16:02:00,88.2,31.1,-100.00,South,169,0.0,-999.0,13,-99.99,,,-99.99,193.0,meteohub,2013-09-04 20:02:00,
2013-09-04 16:07:00,88.2,31.1,-100.00,SE,146,0.0,-999.0,13,-99.99,,,-99.99,183.0,meteohub,2013-09-04 20:07:00,
2013-09-04 16:12:00,88.3,29.3,-100.00,South,173,0.0,-999.0,12,-99.99,,,-99.99,148.0,meteohub,2013-09-04 20:12:00,
2013-09-04 16:17:00,88.3,27.1,-100.00,SSE,155,2.0,-999.0,11,-99.99,,,-99.99,135.0,meteohub,2013-09-04 20:17:00,
2013-09-04 16:22:00,88.3,24.8,-100.00,SE,142,5.0,-999.0,10,-99.99,,,-99.99,160.0,meteohub,2013-09-04 20:22:00,
2013-09-04 16:27:00,88.2,29.1,-100.00,West,277,0.0,-999.0,12,-99.99,,,-99.99,163.0,meteohub,2013-09-04 20:27:00,
2013-09-04 16:32:00,88.3,29.3,-100.00,SW,229,1.0,-999.0,12,-99.99,,,-99.99,156.0,meteohub,2013-09-04 20:32:00,
2013-09-04 16:37:00,88.2,32.9,-100.00,South,169,2.0,-999.0,14,-99.99,,,-99.99,149.0,meteohub,2013-09-04 20:37:00,
2013-09-04 16:42:00,88.2,31.1,-100.00,SSE,161,4.0,-999.0,13,-99.99,,,-99.99,144.0,meteohub,2013-09-04 20:42:00,
2013-09-04 16:47:00,88.2,31.1,-100.00,South,171,0.0,-999.0,13,-99.99,,,-99.99,141.0,meteohub,2013-09-04 20:47:00,
2013-09-04 16:52:00,88.0,30.9,-100.00,SSE,153,0.0,-999.0,13,-99.99,,,-99.99,142.0,meteohub,2013-09-04 20:52:00,
2013-09-04 16:57:00,88.0,28.9,-100.00,SSE,155,0.0,-999.0,12,-99.99,,,-99.99,148.0,meteohub,2013-09-04 20:57:00,
2013-09-04 17:02:00,87.6,28.8,-100.00,SE,138,0.0,-999.0,12,-99.99,,,-99.99,156.0,meteohub,2013-09-04 21:02:00,
2013-09-04 17:07:00,88.0,28.9,-100.00,South,171,2.0,-999.0,12,-99.99,,,-99.99,160.0,meteohub,2013-09-04 21:07:00,
2013-09-04 17:12:00,87.8,28.9,-100.00,SE,143,3.0,-999.0,12,-99.99,,,-99.99,162.0,meteohub,2013-09-04 21:12:00,
2013-09-04 17:17:00,87.6,28.8,-100.00,SSE,161,0.0,-999.0,12,-99.99,,,-99.99,167.0,meteohub,2013-09-04 21:17:00,
2013-09-04 17:22:00,87.8,28.9,-100.00,SSE,151,1.0,-999.0,12,-99.99,,,-99.99,167.0,meteohub,2013-09-04 21:22:00,
2013-09-04 17:27:00,88.2,29.1,-100.00,South,178,2.0,-999.0,12,-99.99,,,-99.99,162.0,meteohub,2013-09-04 21:27:00,
2013-09-04 17:32:00,87.6,34.3,-100.00,SSE,168,4.0,-999.0,15,-99.99,,,-99.99,160.0,meteohub,2013-09-04 21:32:00,
2013-09-04 17:37:00,87.6,34.3,-100.00,SSE,148,0.0,-999.0,15,-99.99,,,-99.99,158.0,meteohub,2013-09-04 21:37:00,
2013-09-04 17:42:00,87.4,35.8,-100.00,SE,143,0.0,-999.0,16,-99.99,,,0.00,156.0,meteohub,2013-09-04 21:42:00,
2013-09-04 17:47:00,87.4,37.2,-100.00,SSE,159,0.0,-999.0,17,-99.99,,,-99.99,153.0,meteohub,2013-09-04 21:47:00,
2013-09-04 17:52:00,87.4,35.8,-100.00,SSE,164,0.0,-999.0,16,-99.99,,,-99.99,146.0,meteohub,2013-09-04 21:52:00,
2013-09-04 17:57:00,87.3,37.2,-100.00,SE,144,5.0,-999.0,17,-99.99,,,-99.99,139.0,meteohub,2013-09-04 21:57:00,
2013-09-04 18:02:00,87.4,37.2,-100.00,SE,132,1.0,-999.0,17,-99.99,,,-99.99,130.0,meteohub,2013-09-04 22:02:00,
2013-09-04 18:07:00,87.4,35.8,-100.00,SSE,157,0.0,-999.0,16,-99.99,,,-99.99,121.0,meteohub,2013-09-04 22:07:00,
2013-09-04 18:12:00,87.4,32.4,-100.00,SSE,159,2.0,-999.0,14,-99.99,,,0.00,113.0,meteohub,2013-09-04 22:12:00,
2013-09-04 18:17:00,87.4,30.6,-100.00,SSE,167,1.0,-999.0,13,-99.99,,,0.00,104.0,meteohub,2013-09-04 22:17:00,
2013-09-04 18:22:00,87.4,28.6,-100.00,SE,144,0.0,-999.0,12,0.00,,,0.00,95.0,meteohub,2013-09-04 22:22:00,
2013-09-04 18:27:00,87.6,26.6,-100.00,SE,143,0.0,-999.0,11,0.00,,,-99.99,88.0,meteohub,2013-09-04 22:27:00,
2013-09-04 18:32:00,87.8,21.9,-100.00,SW,225,0.0,-999.0,9,0.00,,,-99.99,79.0,meteohub,2013-09-04 22:32:00,
2013-09-04 18:37:00,87.6,21.7,-100.00,SE,145,0.0,-999.0,9,0.00,,,-99.99,76.0,meteohub,2013-09-04 22:37:00,
2013-09-04 18:42:00,87.3,21.6,-100.00,SE,143,1.0,-999.0,9,0.00,,,-99.99,72.0,meteohub,2013-09-04 22:42:00,
2013-09-04 18:47:00,87.1,23.9,-100.00,South,171,0.0,-999.0,10,0.00,,,-99.99,67.0,meteohub,2013-09-04 22:47:00,
2013-09-04 18:52:00,87.3,21.6,-100.00,SSE,161,0.0,-999.0,9,0.00,,,-99.99,60.0,meteohub,2013-09-04 22:52:00,
2013-09-04 18:57:00,87.4,21.7,-100.00,SSE,163,1.0,-999.0,9,0.00,,,-99.99,53.0,meteohub,2013-09-04 22:57:00,
2013-09-04 19:02:00,87.3,24.1,-100.00,SSE,163,0.0,-999.0,10,0.00,,,-99.99,42.0,meteohub,2013-09-04 23:02:00,
2013-09-04 19:07:00,87.1,26.2,-100.00,SSE,161,0.0,-999.0,11,0.00,,,-99.99,32.0,meteohub,2013-09-04 23:07:00,
2013-09-04 19:12:00,86.7,25.9,-100.00,SSE,155,0.0,-999.0,11,-99.99,,,-99.99,25.0,meteohub,2013-09-04 23:12:00,
2013-09-04 19:17:00,86.7,25.9,-100.00,SSE,156,0.0,-999.0,11,-99.99,,,-99.99,18.0,meteohub,2013-09-04 23:17:00,
2013-09-04 19:22:00,86.7,25.9,-100.00,SSE,156,0.0,-999.0,11,-99.99,,,-99.99,12.0,meteohub,2013-09-04 23:22:00,
2013-09-04 19:27:00,86.5,25.9,-100.00,SSE,156,0.0,-999.0,11,-99.99,,,-99.99,9.0,meteohub,2013-09-04 23:27:00,
2013-09-04 19:32:00,86.5,25.9,-100.00,SSE,167,1.0,-999.0,11,-99.99,,,-99.99,5.0,meteohub,2013-09-04 23:32:00,
2013-09-04 19:37:00,86.5,23.5,-100.00,SSE,167,0.0,-999.0,10,-99.99,,,0.00,0.0,meteohub,2013-09-04 23:37:00,
2013-09-04 19:42:00,86.4,23.4,-100.00,SSE,160,0.0,-999.0,10,-99.99,,,0.00,0.0,meteohub,2013-09-04 23:42:00,
2013-09-04 19:47:00,86.4,23.4,-100.00,SSE,165,0.0,-999.0,10,-99.99,,,-99.99,0.0,meteohub,2013-09-04 23:47:00,
2013-09-04 19:52:00,86.4,23.4,-100.00,SSE,167,0.0,-999.0,10,-99.99,,,-99.99,0.0,meteohub,2013-09-04 23:52:00,
2013-09-04 19:57:00,86.4,23.4,-100.00,SE,144,0.0,-999.0,10,-99.99,,,-99.99,0.0,meteohub,2013-09-04 23:57:00,
2013-09-04 20:02:00,86.2,23.2,-100.00,SSW,198,0.0,-999.0,10,-99.99,,,-99.99,0.0,meteohub,2013-09-05 00:02:00,
2013-09-04 20:07:00,86.0,23.2,-100.00,South,178,0.0,-999.0,10,-99.99,,,-99.99,0.0,meteohub,2013-09-05 00:07:00,
2013-09-04 20:12:00,86.2,23.2,-100.00,SSE,168,0.0,-999.0,10,-99.99,,,-99.99,0.0,meteohub,2013-09-05 00:12:00,
2013-09-04 20:17:00,86.0,23.2,-100.00,SSE,168,0.0,-999.0,10,-99.99,,,-99.99,0.0,meteohub,2013-09-05 00:17:00,
2013-09-04 20:22:00,85.8,23.0,-100.00,South,180,0.0,-999.0,10,-99.99,,,-99.99,0.0,meteohub,2013-09-05 00:22:00,
2013-09-04 20:27:00,85.8,23.0,-100.00,SSE,156,0.0,-999.0,10,-99.99,,,-99.99,0.0,meteohub,2013-09-05 00:27:00,
2013-09-04 20:32:00,85.8,25.2,-100.00,SSE,157,0.0,-999.0,11,-99.99,,,-99.99,0.0,meteohub,2013-09-05 00:32:00,
2013-09-04 20:37:00,85.8,25.2,-100.00,SSE,162,0.0,-999.0,11,-99.99,,,-99.99,0.0,meteohub,2013-09-05 00:37:00,
2013-09-04 20:42:00,85.6,27.1,-100.00,SSE,165,0.0,-999.0,12,-99.99,,,0.00,0.0,meteohub,2013-09-05 00:42:00,
2013-09-04 20:47:00,85.6,25.2,-100.00,SSE,165,0.0,-999.0,11,-99.99,,,-99.99,0.0,meteohub,2013-09-05 00:47:00,
2013-09-04 20:52:00,85.6,25.2,-100.00,SSE,164,0.0,-999.0,11,-99.99,,,-99.99,0.0,meteohub,2013-09-05 00:52:00,
2013-09-04 20:57:00,85.6,25.2,-100.00,SSE,161,0.0,-999.0,11,-99.99,,,-99.99,0.0,meteohub,2013-09-05 00:57:00,
2013-09-04 21:02:00,85.6,25.2,-100.00,SSE,161,0.0,-999.0,11,-99.99,,,-99.99,0.0,meteohub,2013-09-05 01:02:00,
2013-09-04 21:07:00,85.6,25.2,-100.00,WSW,254,0.0,-999.0,11,-99.99,,,-99.99,0.0,meteohub,2013-09-05 01:07:00,
2013-09-04 21:12:00,85.6,25.2,-100.00,WSW,250,0.0,-999.0,11,-99.99,,,-99.99,0.0,meteohub,2013-09-05 01:12:00,
2013-09-04 21:17:00,85.8,23.0,-100.00,SE,126,0.0,-999.0,10,-99.99,,,-99.99,0.0,meteohub,2013-09-05 01:17:00,
2013-09-04 21:22:00,85.8,20.5,-100.00,SE,145,0.0,-999.0,9,-99.99,,,-99.99,0.0,meteohub,2013-09-05 01:22:00,
2013-09-04 21:27:00,85.8,20.5,-100.00,SE,145,0.0,-999.0,9,-99.99,,,-99.99,0.0,meteohub,2013-09-05 01:27:00,
2013-09-04 21:32:00,86.0,17.8,-100.00,SE,145,0.0,-999.0,8,-99.99,,,-99.99,0.0,meteohub,2013-09-05 01:32:00,
2013-09-04 21:37:00,85.8,14.7,-100.00,SE,144,0.0,-999.0,7,-99.99,,,-99.99,0.0,meteohub,2013-09-05 01:37:00,
2013-09-04 21:42:00,85.8,14.7,-100.00,SE,144,0.0,-999.0,7,-99.99,,,-99.99,0.0,meteohub,2013-09-05 01:42:00,
2013-09-04 21:47:00,86.0,14.7,-100.00,SE,144,0.0,-999.0,7,-99.99,,,-99.99,0.0,meteohub,2013-09-05 01:47:00,
2013-09-04 21:52:00,86.0,14.7,-100.00,SSE,167,0.0,-999.0,7,-99.99,,,-99.99,0.0,meteohub,2013-09-05 01:52:00,
2013-09-04 21:57:00,85.8,14.7,-100.00,SSE,167,0.0,-999.0,7,-99.99,,,-99.99,0.0,meteohub,2013-09-05 01:57:00,
2013-09-04 22:02:00,85.8,14.7,-100.00,SSE,167,0.0,-999.0,7,-99.99,,,-99.99,0.0,meteohub,2013-09-05 02:02:00,
2013-09-04 22:07:00,85.8,14.7,-100.00,South,175,0.0,-999.0,7,-99.99,,,-99.99,0.0,meteohub,2013-09-05 02:07:00,
2013-09-04 22:12:00,85.8,14.7,-100.00,South,175,0.0,-999.0,7,-99.99,,,-99.99,0.0,meteohub,2013-09-05 02:12:00,
2013-09-04 22:17:00,85.8,14.7,-100.00,NE,55,0.0,-999.0,7,-99.99,,,-99.99,0.0,meteohub,2013-09-05 02:17:00,
2013-09-04 22:22:00,85.6,14.5,-100.00,WNW,298,0.0,-999.0,7,-99.99,,,-99.99,0.0,meteohub,2013-09-05 02:22:00,
2013-09-04 22:27:00,85.6,14.5,-100.00,NW,319,0.0,-999.0,7,-99.99,,,-99.99,0.0,meteohub,2013-09-05 02:27:00,
2013-09-04 22:32:00,85.6,14.5,-100.00,NNW,331,0.0,-999.0,7,-99.99,,,-99.99,0.0,meteohub,2013-09-05 02:32:00,
2013-09-04 22:37:00,85.6,14.5,-100.00,NNW,338,0.0,-999.0,7,-99.99,,,-99.99,0.0,meteohub,2013-09-05 02:37:00,
2013-09-04 22:42:00,85.5,14.4,-100.00,NNW,338,0.0,-999.0,7,-99.99,,,-99.99,0.0,meteohub,2013-09-05 02:42:00,
2013-09-04 22:47:00,85.5,14.4,-100.00,NNW,339,0.0,-999.0,7,-99.99,,,-99.99,0.0,meteohub,2013-09-05 02:47:00,
2013-09-04 22:52:00,85.5,14.4,-100.00,NNW,329,0.0,-999.0,7,-99.99,,,-99.99,0.0,meteohub,2013-09-05 02:52:00,
2013-09-04 22:57:00,85.5,14.4,-100.00,NNW,330,0.0,-999.0,7,-99.99,,,-99.99,0.0,meteohub,2013-09-05 02:57:00,
2013-09-04 23:02:00,85.5,14.4,-100.00,NNW,329,0.0,-999.0,7,-99.99,,,-99.99,0.0,meteohub,2013-09-05 03:02:00,
2013-09-04 23:07:00,85.5,14.4,-100.00,NW,323,0.0,-999.0,7,-99.99,,,-99.99,0.0,meteohub,2013-09-05 03:07:00,
2013-09-04 23:12:00,85.5,14.4,-100.00,SW,234,1.0,-999.0,7,-99.99,,,-99.99,0.0,meteohub,2013-09-05 03:12:00,
2013-09-04 23:17:00,85.5,14.4,-100.00,SSE,155,0.0,-999.0,7,-99.99,,,-99.99,0.0,meteohub,2013-09-05 03:17:00,
2013-09-04 23:22:00,85.5,14.4,-100.00,South,178,0.0,-999.0,7,-99.99,,,-99.99,0.0,meteohub,2013-09-05 03:22:00,
2013-09-04 23:27:00,85.5,14.4,-100.00,NW,315,0.0,-999.0,7,-99.99,,,-99.99,0.0,meteohub,2013-09-05 03:27:00,
2013-09-04 23:32:00,85.6,14.5,-100.00,SSE,167,0.0,-999.0,7,-99.99,,,-99.99,0.0,meteohub,2013-09-05 03:32:00,
2013-09-04 23:37:00,85.6,14.5,-100.00,SSW,203,0.0,-999.0,7,-99.99,,,-99.99,0.0,meteohub,2013-09-05 03:37:00,
2013-09-04 23:42:00,85.5,17.4,-100.00,South,181,0.0,-999.0,8,-99.99,,,-99.99,0.0,meteohub,2013-09-05 03:42:00,
2013-09-04 23:47:00,85.5,17.4,-100.00,SW,234,3.0,-999.0,8,-99.99,,,-99.99,0.0,meteohub,2013-09-05 03:47:00,
2013-09-04 23:52:00,85.5,17.4,-100.00,South,186,6.0,-999.0,8,-99.99,,,-99.99,0.0,meteohub,2013-09-05 03:52:00,
2013-09-04 23:57:00,84.9,17.1,-100.00,SSW,201,3.0,-999.0,8,-99.99,,,-99.99,0.0,meteohub,2013-09-05 03:57:00,